Location: Plainartige
(45.6866°N, 1.7993°E)
Time: 10:50:24
(UTC+00:00)

Gurwin Techsat 1B - Pass Details

Date: 05 July 2022
Orbit: 812 x 813 km, 98.8° (Epoch: 10 August)

Event Time Altitude Azimuth Distance (km) Brightness Sun altitude
Rises 02:08:15 0° 18° (NNE) 3,346 13.5 -15.3°
Reaches altitude 10° 02:10:40 10° 23° (NNE) 2,410 12.4 -15.1°
Maximum altitude 02:15:52 53° 100° (E) 992 9.2 -14.6°
Enters shadow 02:20:28 13° 176° (S) 2,176 10.4 -14.2°
